Location: Saint-Hippolyte
(43.6394°N, 4.7559°E)
Time: 14:17:37
(UTC+00:00)

Cosmos 1939 Rocket - Pass Details

Date: 24 October 2020
Orbit: 532 x 584 km, 97.4° (Epoch: 23 November)

Event Time Altitude Azimuth Distance (km) Brightness Sun altitude
Rises 17:03:01 0° 139° (SE) 2,747 6.1 -4.4°
Reaches altitude 10° 17:05:23 10° 127° (SE) 1,846 5.1 -4.8°
Maximum altitude 17:08:45 27° 69° (ENE) 1,089 3.8 -5.4°
Drops below altitude 10° 17:12:06 10° 11° (NNE) 1,831 5.3 -6.0°
Sets 17:14:27 0° 360° (N) 2,721 6.3 -6.4°
